Change the Weather History Date:

Wednesday, January 2, 2013

  Actual Average Record
Temperature  
Mean Temperature 4 °F -  
Max Temperature 18 °F 38 °F 53 °F (1997)
Min Temperature -9 °F 17 °F -9 °F (2011)
Degree Days  
Heating Degree Days 60    
Moisture  
Dew Point -5 °F    
Average Humidity 78    
Maximum Humidity 87    
Minimum Humidity 63    
Precipitation  
Precipitation 0.00 in - - ()
Sea Level Pressure  
Sea Level Pressure 30.49 in    
Wind  
Wind Speed 3 mph (North)    
Max Wind Speed 17 mph    
Max Gust Speed -    
Visibility 6 miles    
Events Fog , Snow    
Averages and records for this station are not official NWS values.
T = Trace of Precipitation, MM = Missing Value Source: NWS Daily Summary

Daily Weather History Graph

Daily Weather History Graph

Search for Another Location

Airport or City:

Trip Planner

Search our weather history database for the weather conditions in past years. The results will help you decide how hot, cold, wet, or windy it might be!

Date:

Astronomy

Jan. 02, 2013 Rise Set
Actual Time 7:49 AM MST 5:23 PM MST
Civil Twilight 7:19 AM MST 5:52 PM MST
Nautical Twilight 6:46 AM MST 6:25 PM MST
Astronomical Twilight 6:14 AM MST 6:58 PM MST
Moon 10:55 PM MST (1/2) 10:37 AM MST (1/2)
Length of Visible Light 10h 32m
Length of Day
9h 33m
Waning Gibbous, 74% of the Moon is Illuminated
Jan 2
Waning Gibbous
Jan 4
Last Quarter
Jan 11
New
Jan 18
First Quarter
Jan 26
Full

Hourly Weather History & Observations

Time (MST) Temp. Windchill Dew Point Humidity Pressure Visibility Wind Dir Wind Speed Gust Speed Precip Events Conditions
12:00 AM -0.4 °F - -5.8 °F 78% 30.35 in 5.0 mi Calm Calm - N/A   Haze
12:12 AM -2.2 °F - -5.8 °F 85% 30.35 in 0.8 mi Calm Calm - N/A   Mist
12:23 AM -4.0 °F - -7.6 °F 85% 30.36 in 0.2 mi Calm Calm - N/A Fog Light Freezing Fog
12:52 AM -2.0 °F - -5.1 °F 87% 30.62 in 0.2 mi Calm Calm - N/A Fog Light Freezing Fog
12:59 AM -2.2 °F - -5.8 °F 85% 30.37 in 0.2 mi Calm Calm - N/A Fog Light Freezing Fog
1:43 AM -4.0 °F - -9.4 °F 78% 30.35 in 2.5 mi Calm Calm - 0.00 in Snow Light Snow
1:52 AM -2.9 °F - -8.0 °F 79% 30.60 in 2.0 mi Calm Calm - 0.00 in   Haze
2:11 AM -4.0 °F - -9.4 °F 78% 30.36 in 4.0 mi Calm Calm - 0.00 in   Haze
2:19 AM -5.8 °F - -11.2 °F 77% 30.36 in 8.0 mi Calm Calm - 0.00 in   Scattered Clouds
2:52 AM -8.0 °F -16.9 °F -13.0 °F 79% 30.61 in 7.0 mi South 3.5 mph - 0.00 in   Clear
3:04 AM -7.6 °F - -11.2 °F 84% 30.37 in 4.0 mi Calm Calm - N/A   Scattered Clouds
3:13 AM -7.6 °F - -11.2 °F 84% 30.36 in 2.5 mi Calm Calm - 0.00 in Snow Light Snow
3:23 AM -7.6 °F - -11.2 °F 84% 30.36 in 4.0 mi Calm Calm - 0.00 in   Haze
3:36 AM -4.0 °F - -9.4 °F 78% 30.36 in 6.0 mi Calm Calm - 0.00 in   Haze
3:52 AM -6.0 °F -16.9 °F -11.0 °F 79% 30.59 in 10.0 mi NNW 4.6 mph - 0.00 in   Partly Cloudy
4:37 AM -9.4 °F -24.3 °F -13.0 °F 84% 30.35 in 2.5 mi South 6.9 mph - 0.00 in Snow Light Snow
4:52 AM -9.9 °F -21.5 °F -16.1 °F 74% 30.62 in 5.0 mi South 4.6 mph - 0.00 in   Haze
5:33 AM -7.6 °F - -13.0 °F 77% 30.34 in 6.0 mi Calm Calm - N/A   Haze
5:42 AM -5.8 °F - -9.4 °F 84% 30.34 in 2.5 mi Calm Calm - N/A   Haze
5:54 AM -5.8 °F - -11.2 °F 77% 30.33 in 1.2 mi Calm Calm - N/A   Haze
6:01 AM -7.6 °F - -11.2 °F 84% 30.34 in 0.5 mi Calm Calm - N/A   Haze
6:33 AM -4.0 °F -14.6 °F -9.4 °F 78% 30.33 in 0.8 mi North 4.6 mph - N/A   Haze
6:44 AM -2.2 °F -10.4 °F -7.6 °F 78% 30.33 in 2.0 mi NNW 3.5 mph - 0.00 in Snow Light Snow
6:52 AM -4.0 °F -14.6 °F -9.0 °F 79% 30.62 in 2.0 mi North 4.6 mph - 0.00 in Snow Light Snow
7:03 AM -5.8 °F -16.7 °F -11.2 °F 77% 30.32 in 6.0 mi North 4.6 mph - 0.00 in   Haze
7:10 AM -5.8 °F -16.7 °F -11.2 °F 77% 30.33 in 10.0 mi NNE 4.6 mph - 0.00 in   Scattered Clouds
7:52 AM -5.1 °F -15.8 °F -9.0 °F 83% 30.66 in 4.0 mi North 4.6 mph - 0.00 in   Mostly Cloudy
8:52 AM -8.0 °F -21.0 °F -14.1 °F 75% 30.70 in 5.0 mi NNE 5.8 mph - N/A   Haze
9:12 AM -7.6 °F -20.6 °F -11.2 °F 84% 30.36 in 5.0 mi NNE 5.8 mph - 0.00 in Snow Light Snow
9:52 AM 3.0 °F -4.4 °F -2.9 °F 76% 30.64 in 8.0 mi NE 3.5 mph - 0.00 in Snow Light Snow
10:15 AM 3.2 °F -4.2 °F -0.4 °F 85% 30.37 in 7.0 mi North 3.5 mph - 0.00 in Snow Light Snow
10:22 AM 5.0 °F - -0.4 °F 78% 30.36 in 2.5 mi Calm Calm - 0.00 in Snow Light Snow
10:28 AM 6.8 °F - 1.4 °F 79% 30.36 in 3.0 mi Calm Calm - 0.00 in   Haze
10:52 AM 9.0 °F 0.6 °F 3.9 °F 80% 30.62 in 9.0 mi North 4.6 mph - 0.00 in Snow Light Snow
11:52 AM 10.0 °F -3.7 °F 3.9 °F 76% 30.63 in 10.0 mi North 10.4 mph - 0.00 in   Clear
12:52 PM 14.0 °F 1.2 °F 7.0 °F 74% 30.57 in 10.0 mi NNE 10.4 mph - N/A   Clear
1:52 PM 16.0 °F 3.6 °F 9.0 °F 74% 30.54 in 10.0 mi NNE 10.4 mph - N/A   Clear
2:52 PM 17.1 °F 3.6 °F 9.0 °F 71% 30.55 in 10.0 mi North 12.7 mph - N/A   Clear
3:52 PM 17.1 °F 1.5 °F 8.1 °F 68% 30.54 in 10.0 mi North 17.3 mph - N/A   Clear
4:09 PM 15.8 °F 0.3 °F 8.6 °F 73% 30.30 in 2.5 mi North 16.1 mph - N/A   Haze
4:17 PM 15.8 °F 0.9 °F 6.8 °F 68% 30.30 in 10.0 mi NNW 15.0 mph - N/A   Clear
4:52 PM 12.9 °F -3.9 °F 6.1 °F 74% 30.57 in 10.0 mi NNW 17.3 mph - N/A   Clear
5:52 PM 7.0 °F -8.3 °F 1.9 °F 80% 30.61 in 10.0 mi North 11.5 mph - N/A   Clear
6:52 PM 7.0 °F -11.0 °F 3.0 °F 84% 30.61 in 9.0 mi North 16.1 mph - N/A   Clear
7:52 PM 1.9 °F -11.8 °F -2.0 °F 83% 30.66 in 7.0 mi NNE 8.1 mph - N/A   Clear
8:52 PM -2.0 °F -16.6 °F -6.0 °F 83% 30.69 in 8.0 mi NNE 8.1 mph - N/A   Clear
9:52 PM -2.9 °F -20.8 °F -7.1 °F 82% 30.66 in 7.0 mi North 11.5 mph - N/A   Clear
10:52 PM -4.0 °F -19.0 °F -8.0 °F 83% 30.65 in 7.0 mi North 8.1 mph - N/A   Clear
11:52 PM -7.1 °F -25.0 °F -11.0 °F 83% 30.64 in 7.0 mi North 10.4 mph - N/A   Clear